,,Stat5,,Stat1,,Stat2,,Stat3,,Stat4,,Wind1,,Wind1,
time,status,PA1M_AVG,status,PR1M_SUM,status,RH1M_AVG,status,SR1M_AVG,status,TA1M_AVG,status,W1dAve1m,status,W1sAve1m,
2001-10-01, 00:00:00,VALID,919.06,VALID,0,VALID,98.7693,VALID,0,VALID,18.6157,VALID,18,VALID,1.46812,
2001-10-01, 00:01:00,VALID,919.06,VALID,0,VALID,98.7579,VALID,-0.0169808,VALID,18.6025,VALID,10,VALID,1.33326,
2001-10-01, 00:02:00,VALID,919.034,VALID,0,VALID,98.7846,VALID,-0.118866,VALID,18.6367,VALID,30,VALID,0.756968,
2001-10-01, 00:03:00,VALID,919.016,VALID,0,VALID,98.8151,VALID,-0.101885,VALID,18.6432,VALID,28,VALID,1.1457,
2001-10-01, 00:04:00,VALID,918.979,VALID,0,VALID,98.796,VALID,-0.101885,VALID,18.6462,VALID,33,VALID,1.01891,
2001-10-01, 00:05:00,VALID,918.965,VALID,0,VALID,98.7859,VALID,-0.101885,VALID,18.6425,VALID,29,VALID,0.724918,
2001-10-01, 00:06:00,VALID,918.942,VALID,0,VALID,98.7859,VALID,-0.101885,VALID,18.6591,VALID,20,VALID,1.3712,
2001-10-01, 00:07:00,VALID,918.924,VALID,0,VALID,98.693,VALID,-0.0849042,VALID,18.6132,VALID,30,VALID,1.21314,
2001-10-01, 00:08:00,VALID,918.915,VALID,0,VALID,98.6956,VALID,-0.101885,VALID,18.6102,VALID,40,VALID,1.05228,
2001-10-01, 00:09:00,VALID,918.919,VALID,0,VALID,98.688,VALID,-0.101885,VALID,18.6072,VALID,44,VALID,0.978401,
2001-10-01, 00:10:00,VALID,918.929,VALID,0,VALID,98.693,VALID,-0.0679233,VALID,18.6268,VALID,40,VALID,0.787212,
2001-10-01, 00:11:00,VALID,918.93,VALID,0,VALID,98.7197,VALID,-0.101885,VALID,18.636,VALID,27,VALID,0.726563,
2001-10-01, 00:12:00,VALID,918.932,VALID,0,VALID,98.7414,VALID,-0.0679233,VALID,18.6584,VALID,41,VALID,0.727648,
2001-10-01, 00:13:00,VALID,918.926,VALID,0,VALID,98.6536,VALID,-0.101885,VALID,18.6521,VALID,57,VALID,0.506944,
2001-10-01, 00:14:00,VALID,918.943,VALID,0,VALID,98.7032,VALID,-0.0849042,VALID,18.6554,VALID,41,VALID,0.731086,
2001-10-01, 00:15:00,VALID,918.932,VALID,0.2,VALID,98.7414,VALID,-0.101885,VALID,18.6777,VALID,28,VALID,0.580592,
2001-10-01, 00:16:00,VALID,918.923,VALID,0,VALID,98.7019,VALID,-0.0509425,VALID,18.6775,VALID,19,VALID,0.374783,
2001-10-01, 00:17:00,VALID,918.898,VALID,0,VALID,98.6956,VALID,0.0169808,VALID,18.6964,VALID,24,VALID,0.46808,
2001-10-01, 00:18:00,VALID,918.879,VALID,0,VALID,98.7287,VALID,0,VALID,18.7128,VALID,17,VALID,0.63528,
2001-10-01, 00:19:00,VALID,918.857,VALID,0,VALID,98.707,VALID,0.0169808,VALID,18.722,VALID,21,VALID,0.885817,
2001-10-01, 00:20:00,VALID,918.838,VALID,0.2,VALID,98.6231,VALID,0,VALID,18.7026,VALID,4,VALID,0.639648,
2001-10-01, 00:21:00,VALID,918.798,VALID,0,VALID,98.5939,VALID,0,VALID,18.693,VALID,48,VALID,0.22389,
2001-10-01, 00:22:00,VALID,918.789,VALID,0,VALID,98.5112,VALID,0,VALID,18.7066,VALID,113,VALID,0.438939,
2001-10-01, 00:23:00,VALID,918.757,VALID,0.2,VALID,98.4146,VALID,0,VALID,18.6706,VALID,132,VALID,0.513021,
2001-10-01, 00:24:00,VALID,918.725,VALID,0,VALID,98.3662,VALID,-0.0169808,VALID,18.6704,VALID,114,VALID,0.735978,
2001-10-01, 00:25:00,VALID,918.713,VALID,0.2,VALID,98.3217,VALID,-0.0169808,VALID,18.6517,VALID,101,VALID,0.745192,
2001-10-01, 00:26:00,VALID,918.699,VALID,0,VALID,98.2607,VALID,-0.0339617,VALID,18.6482,VALID,90,VALID,0.650965,
2001-10-01, 00:27:00,VALID,918.689,VALID,0.2,VALID,98.2302,VALID,-0.0339617,VALID,18.6321,VALID,102,VALID,0.630859,
2001-10-01, 00:28:00,VALID,918.67,VALID,0,VALID,98.2709,VALID,0,VALID,18.6351,VALID,87,VALID,0.63151,
2001-10-01, 00:29:00,VALID,918.666,VALID,0,VALID,98.2416,VALID,0,VALID,18.6154,VALID,103,VALID,0.628038,
2001-10-01, 00:30:00,VALID,918.642,VALID,0.2,VALID,98.2709,VALID,0,VALID,18.6055,VALID,106,VALID,0.555532,
2001-10-01, 00:31:00,VALID,918.63,VALID,0,VALID,98.379,VALID,0.0169808,VALID,18.6219,VALID,140,VALID,0.596834,
2001-10-01, 00:32:00,VALID,918.612,VALID,0,VALID,98.412,VALID,0.0679233,VALID,18.6339,VALID,149,VALID,0.730903,
2001-10-01, 00:33:00,VALID,918.597,VALID,0.2,VALID,98.4171,VALID,0.101885,VALID,18.627,VALID,136,VALID,0.673775,
2001-10-01, 00:34:00,VALID,918.587,VALID,0,VALID,98.468,VALID,0.101885,VALID,18.6274,VALID,105,VALID,0.338976,
2001-10-01, 00:35:00,VALID,918.573,VALID,0,VALID,98.4705,VALID,0.0509425,VALID,18.624,VALID,129,VALID,0.672697,
2001-10-01, 00:36:00,VALID,918.572,VALID,0,VALID,98.5163,VALID,0.101885,VALID,18.6143,VALID,144,VALID,0.738809,
2001-10-01, 00:37:00,VALID,918.542,VALID,0.2,VALID,98.5392,VALID,0.0849042,VALID,18.6044,VALID,142,VALID,1.07832,
2001-10-01, 00:38:00,VALID,918.534,VALID,0,VALID,98.557,VALID,0.0849042,VALID,18.6021,VALID,123,VALID,0.745117,
2001-10-01, 00:39:00,VALID,918.515,VALID,0,VALID,98.5862,VALID,0.0509425,VALID,18.5889,VALID,128,VALID,0.681949,
2001-10-01, 00:40:00,VALID,918.488,VALID,0,VALID,98.6409,VALID,0.101885,VALID,18.579,VALID,118,VALID,0.581292,
2001-10-01, 00:41:00,VALID,918.454,VALID,0,VALID,98.6714,VALID,0.101885,VALID,18.5721,VALID,123,VALID,0.332812,
2001-10-01, 00:42:00,VALID,918.443,VALID,0.2,VALID,98.7299,VALID,0.101885,VALID,18.5917,VALID,135,VALID,0.311883,
2001-10-01, 00:43:00,VALID,918.434,VALID,0,VALID,98.749,VALID,0.101885,VALID,18.6014,VALID,127,VALID,0.110045,
2001-10-01, 00:44:00,VALID,918.427,VALID,0,VALID,98.7541,VALID,0.0679233,VALID,18.5949,VALID,133,VALID,0.29347,
2001-10-01, 00:45:00,VALID,918.408,VALID,0,VALID,98.7604,VALID,0.101885,VALID,18.5917,VALID,108,VALID,0.292969,
2001-10-01, 00:46:00,VALID,918.383,VALID,0.2,VALID,98.8088,VALID,0.0679233,VALID,18.5984,VALID,87,VALID,0.304688,
2001-10-01, 00:47:00,VALID,918.37,VALID,0,VALID,98.777,VALID,0,VALID,18.6224,VALID,96,VALID,0.863982,
2001-10-01, 00:48:00,VALID,918.342,VALID,0,VALID,98.7439,VALID,-0.0339617,VALID,18.5606,VALID,106,VALID,0.596628,
2001-10-01, 00:49:00,VALID,918.338,VALID,0,VALID,98.7757,VALID,-0.0509425,VALID,18.5677,VALID,85,VALID,0.580592,
2001-10-01, 00:50:00,VALID,918.313,VALID,0.2,VALID,98.8037,VALID,-0.0169808,VALID,18.5679,VALID,112,VALID,0.57538,
2001-10-01, 00:51:00,VALID,918.294,VALID,0,VALID,98.7859,VALID,0.0169808,VALID,18.5481,VALID,114,VALID,0.726997,
2001-10-01, 00:52:00,VALID,918.269,VALID,0,VALID,98.7897,VALID,0,VALID,18.532,VALID,89,VALID,0.570735,
2001-10-01, 00:53:00,VALID,918.252,VALID,0.2,VALID,98.8406,VALID,-0.0169808,VALID,18.5354,VALID,84,VALID,0.402344,
2001-10-01, 00:54:00,VALID,918.221,VALID,0,VALID,98.8406,VALID,-0.0169808,VALID,18.5188,VALID,98,VALID,0.448117,
2001-10-01, 00:55:00,VALID,918.213,VALID,0.2,VALID,98.8711,VALID,-0.0169808,VALID,18.5218,VALID,101,VALID,0.633213,
2001-10-01, 00:56:00,VALID,918.199,VALID,0,VALID,98.899,VALID,0,VALID,18.5223,VALID,63,VALID,0.244721,
2001-10-01, 00:57:00,VALID,918.182,VALID,0,VALID,98.9385,VALID,-0.0169808,VALID,18.5389,VALID,37,VALID,0.347245,
2001-10-01, 00:58:00,VALID,918.163,VALID,0.2,VALID,98.9563,VALID,-0.0339617,VALID,18.5449,VALID,36,VALID,0.427083,
2001-10-01, 00:59:00,VALID,918.155,VALID,0,VALID,98.9677,VALID,0,VALID,18.5451,VALID,36,VALID,0.380008,
2001-10-01, 01:00:00,VALID,918.137,VALID,0,VALID,98.9868,VALID,0,VALID,18.5578,VALID,53,VALID,0.419577,
2001-10-01, 01:01:00,VALID,918.113,VALID,0.2,VALID,98.9957,VALID,0.0169808,VALID,18.5645,VALID,78,VALID,0.265419,
2001-10-01, 01:02:00,VALID,918.094,VALID,0,VALID,98.9779,VALID,0,VALID,18.5518,VALID,82,VALID,0.0173142,
2001-10-01, 01:03:00,VALID,918.085,VALID,0,VALID,98.9715,VALID,-0.0169808,VALID,18.5516,VALID,82,VALID,0.00108507,
2001-10-01, 01:04:00,VALID,918.064,VALID,0,VALID,98.9703,VALID,-0.0169808,VALID,18.5193,VALID,82,VALID,0,
2001-10-01, 01:05:00,VALID,918.049,VALID,0.2,VALID,99.0377,VALID,-0.0339617,VALID,18.5356,VALID,82,VALID,0,
2001-10-01, 01:06:00,VALID,918.031,VALID,0,VALID,99.0542,VALID,-0.0339617,VALID,18.5481,VALID,82,VALID,0,
2001-10-01, 01:07:00,VALID,918.038,VALID,0,VALID,99.0351,VALID,0,VALID,18.5414,VALID,82,VALID,0,
2001-10-01, 01:08:00,VALID,918.025,VALID,0,VALID,99.0237,VALID,0,VALID,18.5317,VALID,82,VALID,0,
2001-10-01, 01:09:00,VALID,918.024,VALID,0,VALID,99.0593,VALID,0.0169808,VALID,18.5354,VALID,102,VALID,0,
2001-10-01, 01:10:00,VALID,918.019,VALID,0,VALID,99.0936,VALID,0,VALID,18.558,VALID,113,VALID,0.031851,
2001-10-01, 01:11:00,VALID,918.008,VALID,0,VALID,99.0911,VALID,-0.0169808,VALID,18.5509,VALID,107,VALID,0.199219,
2001-10-01, 01:12:00,VALID,917.989,VALID,0,VALID,99.0974,VALID,-0.0169808,VALID,18.5511,VALID,131,VALID,0.479852,
2001-10-01, 01:13:00,VALID,917.99,VALID,0.2,VALID,99.0911,VALID,0,VALID,18.5444,VALID,121,VALID,0.253495,
2001-10-01, 01:14:00,VALID,917.986,VALID,0,VALID,99.0771,VALID,0.0169808,VALID,18.5449,VALID,127,VALID,0.567308,
2001-10-01, 01:15:00,VALID,917.977,VALID,0,VALID,99.0885,VALID,0.0169808,VALID,18.5384,VALID,135,VALID,0.554487,
2001-10-01, 01:16:00,VALID,917.967,VALID,0.2,VALID,99.0923,VALID,0,VALID,18.5287,VALID,144,VALID,0.782252,
2001-10-01, 01:17:00,VALID,917.952,VALID,0,VALID,99.0847,VALID,0,VALID,18.5121,VALID,138,VALID,0.639476,
2001-10-01, 01:18:00,VALID,917.939,VALID,0,VALID,99.0936,VALID,-0.0339617,VALID,18.5059,VALID,143,VALID,0.560547,
2001-10-01, 01:19:00,VALID,917.912,VALID,0,VALID,99.0974,VALID,0,VALID,18.5063,VALID,140,VALID,0.554253,
2001-10-01, 01:20:00,VALID,917.919,VALID,0,VALID,99.1025,VALID,-0.0169808,VALID,18.5061,VALID,136,VALID,0.421875,
2001-10-01, 01:21:00,VALID,917.896,VALID,0.2,VALID,99.1101,VALID,0,VALID,18.5093,VALID,137,VALID,0.584882,
2001-10-01, 01:22:00,VALID,917.882,VALID,0,VALID,99.0949,VALID,0,VALID,18.4897,VALID,143,VALID,0.597862,
2001-10-01, 01:23:00,VALID,917.869,VALID,0,VALID,99.1381,VALID,0.0169808,VALID,18.4964,VALID,138,VALID,0.346137,
2001-10-01, 01:24:00,VALID,917.85,VALID,0,VALID,99.1457,VALID,0,VALID,18.5096,VALID,138,VALID,0.370777,
2001-10-01, 01:25:00,VALID,917.816,VALID,0,VALID,99.1356,VALID,0,VALID,18.5061,VALID,137,VALID,0.0742188,
2001-10-01, 01:26:00,VALID,917.799,VALID,0,VALID,99.1521,VALID,0,VALID,18.5063,VALID,137,VALID,0,
2001-10-01, 01:27:00,VALID,917.773,VALID,0.2,VALID,99.1546,VALID,0.0169808,VALID,18.5126,VALID,137,VALID,0,
2001-10-01, 01:28:00,VALID,917.77,VALID,0,VALID,99.1724,VALID,0,VALID,18.5061,VALID,137,VALID,0,
2001-10-01, 01:29:00,VALID,917.768,VALID,0,VALID,99.1801,VALID,0.0169808,VALID,18.5153,VALID,137,VALID,0,
2001-10-01, 01:30:00,VALID,917.747,VALID,0,VALID,99.1877,VALID,-0.0169808,VALID,18.5446,VALID,138,VALID,0,
2001-10-01, 01:31:00,VALID,917.743,VALID,0,VALID,99.1826,VALID,0,VALID,18.5419,VALID,185,VALID,0.0810811,
2001-10-01, 01:32:00,VALID,917.724,VALID,0,VALID,99.1852,VALID,0,VALID,18.5382,VALID,288,VALID,0.417383,
2001-10-01, 01:33:00,VALID,917.708,VALID,0,VALID,99.1813,VALID,0,VALID,18.5486,VALID,288,VALID,0.160567,
2001-10-01, 01:34:00,VALID,917.693,VALID,0.2,VALID,99.1979,VALID,0,VALID,18.5516,VALID,289,VALID,0.0745536,
2001-10-01, 01:35:00,VALID,917.685,VALID,0,VALID,99.2233,VALID,0,VALID,18.5772,VALID,358,VALID,0.196314,
2001-10-01, 01:36:00,VALID,917.667,VALID,0,VALID,99.2297,VALID,-0.0169808,VALID,18.5965,VALID,12,VALID,0.0436198,
2001-10-01, 01:37:00,VALID,917.664,VALID,0,VALID,99.236,VALID,0,VALID,18.6097,VALID,12,VALID,0.231419,
2001-10-01, 01:38:00,VALID,917.66,VALID,0,VALID,99.2564,VALID,0.0169808,VALID,18.6154,VALID,19,VALID,0.700521,
2001-10-01, 01:39:00,VALID,917.64,VALID,0,VALID,99.236,VALID,0.0339617,VALID,18.6293,VALID,13,VALID,0.700041,
2001-10-01, 01:40:00,VALID,917.65,VALID,0.2,VALID,99.2322,VALID,0,VALID,18.6067,VALID,14,VALID,0.412623,
2001-10-01, 01:41:00,VALID,917.641,VALID,0,VALID,99.2233,VALID,0.0169808,VALID,18.5931,VALID,13,VALID,0.315456,
2001-10-01, 01:42:00,VALID,917.646,VALID,0,VALID,99.2284,VALID,0,VALID,18.5772,VALID,5,VALID,0.400174,
2001-10-01, 01:43:00,VALID,917.633,VALID,0,VALID,99.2195,VALID,0.0169808,VALID,18.5479,VALID,358,VALID,0.36212,
2001-10-01, 01:44:00,VALID,917.641,VALID,0,VALID,99.2208,VALID,0,VALID,18.5548,VALID,9,VALID,0.232113,
2001-10-01, 01:45:00,VALID,917.642,VALID,0,VALID,99.2335,VALID,0,VALID,18.5613,VALID,6,VALID,0.444712,
2001-10-01, 01:46:00,VALID,917.639,VALID,0.2,VALID,99.2538,VALID,0.0169808,VALID,18.5802,VALID,12,VALID,0.413061,
2001-10-01, 01:47:00,VALID,917.641,VALID,0,VALID,99.2615,VALID,0,VALID,18.5806,VALID,358,VALID,0.186867,
2001-10-01, 01:48:00,VALID,917.643,VALID,0,VALID,99.2589,VALID,0.0169808,VALID,18.5901,VALID,4,VALID,0.315995,
2001-10-01, 01:49:00,VALID,917.641,VALID,0,VALID,99.2398,VALID,-0.0169808,VALID,18.5679,VALID,7,VALID,0.152244,
2001-10-01, 01:50:00,VALID,917.635,VALID,0,VALID,99.2297,VALID,0,VALID,18.5253,VALID,9,VALID,0.234575,
2001-10-01, 01:51:00,VALID,917.648,VALID,0,VALID,99.2144,VALID,0.0169808,VALID,18.5029,VALID,14,VALID,0.0330882,
2001-10-01, 01:52:00,VALID,917.64,VALID,0,VALID,99.2246,VALID,0.0339617,VALID,18.4828,VALID,14,VALID,0.00123355,
2001-10-01, 01:53:00,VALID,917.64,VALID,0.2,VALID,99.2411,VALID,0,VALID,18.4835,VALID,16,VALID,0.104307,
2001-10-01, 01:54:00,VALID,917.622,VALID,0,VALID,99.2513,VALID,0.0169808,VALID,18.4932,VALID,16,VALID,0.078559,
2001-10-01, 01:55:00,VALID,917.629,VALID,0,VALID,99.2437,VALID,0.0169808,VALID,18.48,VALID,16,VALID,0,
2001-10-01, 01:56:00,VALID,917.622,VALID,0,VALID,99.2373,VALID,0.0339617,VALID,18.4637,VALID,127,VALID,0.274465,
2001-10-01, 01:57:00,VALID,917.617,VALID,0,VALID,99.2437,VALID,0,VALID,18.451,VALID,121,VALID,0.151521,
2001-10-01, 01:58:00,VALID,917.618,VALID,0.2,VALID,99.2576,VALID,0.0169808,VALID,18.4607,VALID,121,VALID,0,
2001-10-01, 01:59:00,VALID,917.607,VALID,0,VALID,99.2678,VALID,0,VALID,18.4637,VALID,145,VALID,0,
2001-10-01, 02:00:00,VALID,917.596,VALID,0,VALID,99.2805,VALID,0,VALID,18.4671,VALID,167,VALID,0,
2001-10-01, 02:01:00,VALID,917.586,VALID,0,VALID,99.2805,VALID,0,VALID,18.4738,VALID,166,VALID,0,
2001-10-01, 02:02:00,VALID,917.586,VALID,0,VALID,99.2945,VALID,0,VALID,18.4771,VALID,158,VALID,0,
2001-10-01, 02:03:00,VALID,917.581,VALID,0,VALID,99.2983,VALID,0,VALID,18.4934,VALID,154,VALID,0.66324,
2001-10-01, 02:04:00,VALID,917.572,VALID,0.2,VALID,99.3034,VALID,0,VALID,18.5029,VALID,159,VALID,0.8419,
2001-10-01, 02:05:00,VALID,917.558,VALID,0,VALID,99.2971,VALID,0,VALID,18.4895,VALID,159,VALID,0.825521,
2001-10-01, 02:06:00,VALID,917.564,VALID,0,VALID,99.2932,VALID,-0.0169808,VALID,18.4867,VALID,160,VALID,0.693109,
2001-10-01, 02:07:00,VALID,917.552,VALID,0,VALID,99.2996,VALID,0,VALID,18.4835,VALID,160,VALID,0.512821,
2001-10-01, 02:08:00,VALID,917.546,VALID,0,VALID,99.2958,VALID,0,VALID,18.49,VALID,160,VALID,0.422794,
2001-10-01, 02:09:00,VALID,917.534,VALID,0,VALID,99.3034,VALID,0,VALID,18.4731,VALID,169,VALID,0.485352,
2001-10-01, 02:10:00,VALID,917.519,VALID,0.2,VALID,99.3123,VALID,0,VALID,18.4835,VALID,170,VALID,0.290365,
2001-10-01, 02:11:00,VALID,917.517,VALID,0,VALID,99.3034,VALID,0.0169808,VALID,18.4639,VALID,168,VALID,0.367188,
2001-10-01, 02:12:00,VALID,917.504,VALID,0,VALID,99.306,VALID,0,VALID,18.4671,VALID,168,VALID,0.429688,
2001-10-01, 02:13:00,VALID,917.507,VALID,0,VALID,99.3212,VALID,0,VALID,18.4803,VALID,168,VALID,0.126439,
2001-10-01, 02:14:00,VALID,917.492,VALID,0,VALID,99.3339,VALID,0,VALID,18.496,VALID,162,VALID,0.136936,
2001-10-01, 02:15:00,VALID,917.474,VALID,0,VALID,99.3352,VALID,0,VALID,18.519,VALID,157,VALID,0.282517,
2001-10-01, 02:16:00,VALID,917.451,VALID,0,VALID,99.3377,VALID,0,VALID,18.5227,VALID,172,VALID,0.462023,
2001-10-01, 02:17:00,VALID,917.441,VALID,0.2,VALID,99.339,VALID,0,VALID,18.5223,VALID,172,VALID,0.198191,
2001-10-01, 02:18:00,VALID,917.415,VALID,0,VALID,99.3466,VALID,0,VALID,18.5186,VALID,164,VALID,0.407306,
2001-10-01, 02:19:00,VALID,917.412,VALID,0,VALID,99.3416,VALID,0.0169808,VALID,18.5183,VALID,161,VALID,0.292492,
2001-10-01, 02:20:00,VALID,917.396,VALID,0,VALID,99.3428,VALID,0,VALID,18.5255,VALID,161,VALID,0.508594,
2001-10-01, 02:21:00,VALID,917.387,VALID,0,VALID,99.3327,VALID,0,VALID,18.5287,VALID,166,VALID,0.562089,
2001-10-01, 02:22:00,VALID,917.376,VALID,0,VALID,99.3403,VALID,0,VALID,18.5156,VALID,156,VALID,0.242188,
2001-10-01, 02:23:00,VALID,917.386,VALID,0.2,VALID,99.3492,VALID,0,VALID,18.5089,VALID,155,VALID,0.394727,
2001-10-01, 02:24:00,VALID,917.381,VALID,0,VALID,99.3403,VALID,0,VALID,18.5086,VALID,156,VALID,0.764391,
2001-10-01, 02:25:00,VALID,917.385,VALID,0,VALID,99.3276,VALID,0,VALID,18.4923,VALID,154,VALID,0.683482,
2001-10-01, 02:26:00,VALID,917.383,VALID,0,VALID,99.3276,VALID,0,VALID,18.4992,VALID,152,VALID,0.470753,
2001-10-01, 02:27:00,VALID,917.371,VALID,0,VALID,99.3466,VALID,0.0169808,VALID,18.4828,VALID,140,VALID,0.827474,
2001-10-01, 02:28:00,VALID,917.38,VALID,0.2,VALID,99.3301,VALID,0.0169808,VALID,18.4734,VALID,139,VALID,0.980997,
2001-10-01, 02:29:00,VALID,917.384,VALID,0,VALID,99.3352,VALID,0,VALID,18.4741,VALID,141,VALID,0.701122,
2001-10-01, 02:30:00,VALID,917.387,VALID,0,VALID,99.3428,VALID,0,VALID,18.46,VALID,115,VALID,0.493832,
2001-10-01, 02:31:00,VALID,917.388,VALID,0,VALID,99.3416,VALID,0,VALID,18.4572,VALID,114,VALID,0.298109,
2001-10-01, 02:32:00,VALID,917.402,VALID,0,VALID,99.3606,VALID,0,VALID,18.4676,VALID,148,VALID,0.255912,
2001-10-01, 02:33:00,VALID,917.393,VALID,0,VALID,99.353,VALID,-0.0169808,VALID,18.4641,VALID,120,VALID,0.608941,
2001-10-01, 02:34:00,VALID,917.39,VALID,0.2,VALID,99.3517,VALID,-0.0169808,VALID,18.4542,VALID,104,VALID,0.532517,
2001-10-01, 02:35:00,VALID,917.385,VALID,0,VALID,99.3708,VALID,0,VALID,18.4579,VALID,128,VALID,0.262747,
2001-10-01, 02:36:00,VALID,917.375,VALID,0,VALID,99.3823,VALID,0,VALID,18.4676,VALID,118,VALID,0.312901,
2001-10-01, 02:37:00,VALID,917.362,VALID,0,VALID,99.3708,VALID,0,VALID,18.4609,VALID,114,VALID,0.459335,
2001-10-01, 02:38:00,VALID,917.344,VALID,0,VALID,99.3734,VALID,0,VALID,18.4475,VALID,104,VALID,0.364231,
2001-10-01, 02:39:00,VALID,917.331,VALID,0,VALID,99.3772,VALID,0,VALID,18.4542,VALID,106,VALID,0.548931,
2001-10-01, 02:40:00,VALID,917.315,VALID,0,VALID,99.3581,VALID,0.0169808,VALID,18.4374,VALID,103,VALID,0.688301,
2001-10-01, 02:41:00,VALID,917.283,VALID,0,VALID,99.3568,VALID,0,VALID,18.4344,VALID,125,VALID,0.597556,
2001-10-01, 02:42:00,VALID,917.262,VALID,0,VALID,99.3746,VALID,0.0339617,VALID,18.4381,VALID,100,VALID,0.330653,
2001-10-01, 02:43:00,VALID,917.242,VALID,0.2,VALID,99.3823,VALID,0,VALID,18.4478,VALID,110,VALID,0.281456,
2001-10-01, 02:44:00,VALID,917.236,VALID,0,VALID,99.3848,VALID,0.0169808,VALID,18.4376,VALID,127,VALID,0.569257,
2001-10-01, 02:45:00,VALID,917.218,VALID,0,VALID,99.3848,VALID,0,VALID,18.4411,VALID,124,VALID,0.253472,
2001-10-01, 02:46:00,VALID,917.2,VALID,0,VALID,99.4026,VALID,0.0169808,VALID,18.4609,VALID,153,VALID,0.273872,
2001-10-01, 02:47:00,VALID,917.19,VALID,0,VALID,99.3962,VALID,0.0339617,VALID,18.4639,VALID,125,VALID,0.4044,
2001-10-01, 02:48:00,VALID,917.173,VALID,0,VALID,99.3975,VALID,0.0169808,VALID,18.454,VALID,135,VALID,0.237459,
2001-10-01, 02:49:00,VALID,917.168,VALID,0,VALID,99.395,VALID,0,VALID,18.4538,VALID,142,VALID,0.649957,
2001-10-01, 02:50:00,VALID,917.164,VALID,0,VALID,99.3848,VALID,0,VALID,18.4445,VALID,152,VALID,0.925,
2001-10-01, 02:51:00,VALID,917.151,VALID,0.2,VALID,99.3823,VALID,0.0169808,VALID,18.4376,VALID,150,VALID,0.663857,
2001-10-01, 02:52:00,VALID,917.146,VALID,0,VALID,99.3746,VALID,0,VALID,18.4316,VALID,147,VALID,1.21154,
2001-10-01, 02:53:00,VALID,917.126,VALID,0,VALID,99.3772,VALID,0.0339617,VALID,18.415,VALID,132,VALID,0.977148,
2001-10-01, 02:54:00,VALID,917.125,VALID,0,VALID,99.3861,VALID,0,VALID,18.4187,VALID,144,VALID,0.973273,
2001-10-01, 02:55:00,VALID,917.112,VALID,0,VALID,99.3823,VALID,0.0169808,VALID,18.4286,VALID,129,VALID,0.939556,
2001-10-01, 02:56:00,VALID,917.114,VALID,0,VALID,99.3861,VALID,0.0169808,VALID,18.412,VALID,128,VALID,1.02003,
2001-10-01, 02:57:00,VALID,917.116,VALID,0,VALID,99.3937,VALID,0.0169808,VALID,18.4187,VALID,134,VALID,0.508814,
2001-10-01, 02:58:00,VALID,917.116,VALID,0,VALID,99.3988,VALID,0,VALID,18.4155,VALID,144,VALID,0.703325,
2001-10-01, 02:59:00,VALID,917.095,VALID,0,VALID,99.4013,VALID,0,VALID,18.4155,VALID,133,VALID,0.573529,
2001-10-01, 03:00:00,VALID,917.077,VALID,0,VALID,99.3975,VALID,0,VALID,18.4284,VALID,142,VALID,0.347852,
2001-10-01, 03:01:00,VALID,917.066,VALID,0,VALID,99.4001,VALID,0,VALID,18.4254,VALID,151,VALID,0.527561,
2001-10-01, 03:02:00,VALID,917.057,VALID,0.2,VALID,99.3861,VALID,0,VALID,18.4157,VALID,147,VALID,0.863715,
2001-10-01, 03:03:00,VALID,917.06,VALID,0,VALID,99.4001,VALID,0,VALID,18.4055,VALID,156,VALID,0.625422,
2001-10-01, 03:04:00,VALID,917.051,VALID,0,VALID,99.4026,VALID,0,VALID,18.409,VALID,132,VALID,0.555099,
2001-10-01, 03:05:00,VALID,917.047,VALID,0,VALID,99.4026,VALID,0,VALID,18.4224,VALID,133,VALID,0.303385,
2001-10-01, 03:06:00,VALID,917.044,VALID,0,VALID,99.409,VALID,0,VALID,18.4291,VALID,136,VALID,0.13598,
2001-10-01, 03:07:00,VALID,917.034,VALID,0,VALID,99.4077,VALID,0,VALID,18.4318,VALID,135,VALID,0.240017,
2001-10-01, 03:08:00,VALID,917.025,VALID,0,VALID,99.4102,VALID,0,VALID,18.4418,VALID,126,VALID,0.259252,
2001-10-01, 03:09:00,VALID,917.014,VALID,0,VALID,99.4204,VALID,-0.0169808,VALID,18.4413,VALID,132,VALID,0.232052,
2001-10-01, 03:10:00,VALID,917.016,VALID,0,VALID,99.4064,VALID,0.0169808,VALID,18.4512,VALID,139,VALID,0.44455,
2001-10-01, 03:11:00,VALID,917.022,VALID,0,VALID,99.4115,VALID,-0.0169808,VALID,18.4351,VALID,122,VALID,0.253125,
2001-10-01, 03:12:00,VALID,917.027,VALID,0,VALID,99.4179,VALID,0,VALID,18.4413,VALID,96,VALID,0.0729852,
2001-10-01, 03:13:00,VALID,917.032,VALID,0.2,VALID,99.4166,VALID,0.0169808,VALID,18.4378,VALID,89,VALID,0.165118,
2001-10-01, 03:14:00,VALID,917.017,VALID,0,VALID,99.4293,VALID,0,VALID,18.4639,VALID,76,VALID,0.0984375,
2001-10-01, 03:15:00,VALID,917.019,VALID,0,VALID,99.4306,VALID,0.0169808,VALID,18.4768,VALID,75,VALID,0.0538651,
2001-10-01, 03:16:00,VALID,916.998,VALID,0,VALID,99.4217,VALID,0,VALID,18.4798,VALID,75,VALID,0.201339,
2001-10-01, 03:17:00,VALID,916.986,VALID,0,VALID,99.4153,VALID,-0.0169808,VALID,18.4639,VALID,75,VALID,0.233173,
2001-10-01, 03:18:00,VALID,916.978,VALID,0,VALID,99.4166,VALID,0,VALID,18.4711,VALID,99,VALID,0.417318,
2001-10-01, 03:19:00,VALID,916.96,VALID,0,VALID,99.3988,VALID,-0.0169808,VALID,18.4351,VALID,97,VALID,0.422508,
2001-10-01, 03:20:00,VALID,916.943,VALID,0,VALID,99.3873,VALID,0,VALID,18.4122,VALID,98,VALID,0.558894,
2001-10-01, 03:21:00,VALID,916.94,VALID,0,VALID,99.3937,VALID,0,VALID,18.409,VALID,112,VALID,0.540296,
2001-10-01, 03:22:00,VALID,916.938,VALID,0,VALID,99.4001,VALID,0,VALID,18.4129,VALID,131,VALID,0.368421,
2001-10-01, 03:23:00,VALID,916.914,VALID,0,VALID,99.4013,VALID,0,VALID,18.4055,VALID,137,VALID,0.806588,
2001-10-01, 03:24:00,VALID,916.92,VALID,0.2,VALID,99.4217,VALID,0,VALID,18.4058,VALID,142,VALID,0.596788,
2001-10-01, 03:25:00,VALID,916.901,VALID,0,VALID,99.4013,VALID,0,VALID,18.3989,VALID,144,VALID,0.836782,
2001-10-01, 03:26:00,VALID,916.898,VALID,0,VALID,99.4001,VALID,0,VALID,18.3896,VALID,141,VALID,1.18421,
2001-10-01, 03:27:00,VALID,916.883,VALID,0,VALID,99.4064,VALID,0,VALID,18.3765,VALID,140,VALID,0.921675,
2001-10-01, 03:28:00,VALID,916.86,VALID,0,VALID,99.4026,VALID,0,VALID,18.3836,VALID,150,VALID,1.14403,
2001-10-01, 03:29:00,VALID,916.849,VALID,0,VALID,99.4039,VALID,0,VALID,18.3767,VALID,146,VALID,0.966005,
2001-10-01, 03:30:00,VALID,916.829,VALID,0,VALID,99.4064,VALID,0,VALID,18.3871,VALID,135,VALID,0.86616,
2001-10-01, 03:31:00,VALID,916.828,VALID,0,VALID,99.4102,VALID,0,VALID,18.3769,VALID,128,VALID,0.811899,
2001-10-01, 03:32:00,VALID,916.804,VALID,0,VALID,99.4318,VALID,0,VALID,18.367,VALID,122,VALID,0.783454,
2001-10-01, 03:33:00,VALID,916.778,VALID,0,VALID,99.4166,VALID,0,VALID,18.3832,VALID,129,VALID,0.609605,
2001-10-01, 03:34:00,VALID,916.758,VALID,0,VALID,99.4255,VALID,0,VALID,18.3836,VALID,121,VALID,0.71361,
2001-10-01, 03:35:00,VALID,916.756,VALID,0,VALID,99.4229,VALID,-0.0339617,VALID,18.3774,VALID,139,VALID,0.706292,
2001-10-01, 03:36:00,VALID,916.736,VALID,0.2,VALID,99.4128,VALID,-0.0169808,VALID,18.3871,VALID,134,VALID,0.965712,
2001-10-01, 03:37:00,VALID,916.738,VALID,0,VALID,99.4217,VALID,-0.0169808,VALID,18.3772,VALID,132,VALID,1.13194,